Location: Franzen
(48.6167°N, 15.3833°E)
Time: 16:26:43
(UTC+00:00)

Cosmos 2219 - Pass Details

Date: 06 August 2021
Orbit: 834 x 860 km, 71.1° (Epoch: 18 September)

Event Time Altitude Azimuth Distance (km) Brightness Sun altitude
Exits shadow 22:35:04 32° 240° (WSW) 1,435 4.2 -24.6°
Maximum altitude 22:37:35 56° 303° (WNW) 1,015 3.7 -24.7°
Drops below altitude 10° 22:43:15 10° 22° (NNE) 2,507 6.5 -24.8°
Sets 22:45:47 0° 27° (NNE) 3,446 7.3 -24.8°
